Time,TemperatureF,DewpointF,PressureIn,WindDirection,WindDirectionDegrees,WindSpeedMPH,WindSpeedGustMPH,Humidity,HourlyPrecipIn,Conditions,Clouds,dailyrainin,SoftwareType,DateUTC
2013-04-18 00:00:00,50.2,44.0,30.05,NE,56,0.0,1.0,79,0.00,,CLR,0.00,VWS V13.01,2013-04-18 04:00:00,
2013-04-18 00:01:00,50.3,44.0,30.05,NE,56,0.0,0.0,79,0.00,,BKN065,0.00,VWS V13.01,2013-04-18 04:01:00,
2013-04-18 00:02:00,50.3,43.7,30.05,NE,56,1.0,2.0,78,0.00,,BKN065,0.00,VWS V13.01,2013-04-18 04:02:00,
2013-04-18 00:07:00,50.4,43.8,30.07,WNW,290,4.0,4.0,78,0.00,,BKN065,0.00,VWS V13.01,2013-04-18 04:07:00,
2013-04-18 00:12:00,47.8,40.3,30.06,NE,40,6.0,15.0,75,0.00,,BKN065,0.00,VWS V13.01,2013-04-18 04:12:00,
2013-04-18 00:17:00,45.4,39.0,30.07,NE,55,0.0,15.0,78,0.00,,BKN065,0.00,VWS V13.01,2013-04-18 04:17:00,
2013-04-18 00:22:00,44.6,38.8,30.09,NNW,342,1.0,15.0,80,0.00,,BKN065,0.00,VWS V13.01,2013-04-18 04:22:00,
2013-04-18 00:27:00,44.1,38.7,30.08,North,360,1.0,15.0,81,0.00,,BKN065,0.00,VWS V13.01,2013-04-18 04:27:00,
2013-04-18 00:30:00,43.9,38.8,30.07,East,81,1.0,15.0,82,0.00,,CLR,0.00,VWS V13.01,2013-04-18 04:30:00,
2013-04-18 00:32:00,43.8,38.7,30.07,NE,53,2.0,4.0,82,0.00,,BKN065,0.00,VWS V13.01,2013-04-18 04:32:00,
2013-04-18 00:37:00,43.9,38.8,30.08,NE,52,0.0,4.0,82,0.00,,BKN065,0.00,VWS V13.01,2013-04-18 04:37:00,
2013-04-18 00:42:00,44.0,38.9,30.08,NE,55,3.0,4.0,82,0.00,,BKN065,0.00,VWS V13.01,2013-04-18 04:42:00,
2013-04-18 00:47:00,44.2,39.1,30.07,NE,50,0.0,5.0,82,0.00,,BKN065,0.00,VWS V13.01,2013-04-18 04:47:00,
2013-04-18 00:52:00,44.4,39.3,30.07,NE,48,2.0,5.0,82,0.00,,BKN065,0.00,VWS V13.01,2013-04-18 04:52:00,
2013-04-18 00:57:00,44.6,39.1,30.07,NE,41,2.0,5.0,81,0.00,,BKN065,0.00,VWS V13.01,2013-04-18 04:57:00,
2013-04-18 01:00:00,44.7,39.2,30.07,NE,42,0.0,5.0,81,0.00,,CLR,0.00,VWS V13.01,2013-04-18 05:00:00,
2013-04-18 01:02:00,44.8,39.3,30.06,ESE,104,2.0,4.0,81,0.00,,OVC055,0.00,VWS V13.01,2013-04-18 05:02:00,
2013-04-18 01:07:00,44.9,39.4,30.05,NE,52,0.0,5.0,81,0.00,,OVC055,0.00,VWS V13.01,2013-04-18 05:07:00,
2013-04-18 01:12:00,44.9,39.1,30.04,NE,54,0.0,5.0,80,0.00,,OVC055,0.00,VWS V13.01,2013-04-18 05:12:00,
2013-04-18 01:17:00,45.0,39.5,30.03,ENE,67,0.0,5.0,81,0.00,,OVC055,0.00,VWS V13.01,2013-04-18 05:17:00,
2013-04-18 01:22:00,45.0,39.5,30.02,ENE,67,0.0,5.0,81,0.00,,OVC055,0.00,VWS V13.01,2013-04-18 05:22:00,
2013-04-18 01:27:00,45.1,39.6,30.02,ENE,67,0.0,5.0,81,0.00,,OVC055,0.00,VWS V13.01,2013-04-18 05:27:00,
2013-04-18 01:30:00,45.2,39.7,30.02,ENE,67,0.0,5.0,81,0.00,,CLR,0.00,VWS V13.01,2013-04-18 05:30:00,
2013-04-18 01:32:00,45.3,39.8,30.02,ENE,67,0.0,0.0,81,0.00,,OVC055,0.00,VWS V13.01,2013-04-18 05:32:00,
2013-04-18 01:37:00,45.5,40.0,30.02,ENE,67,0.0,1.0,81,0.00,,OVC055,0.00,VWS V13.01,2013-04-18 05:37:00,
2013-04-18 01:42:00,45.8,40.3,30.01,ENE,67,0.0,1.0,81,0.00,,OVC055,0.00,VWS V13.01,2013-04-18 05:42:00,
2013-04-18 01:47:00,46.2,41.0,30.01,ENE,67,0.0,1.0,82,0.00,,OVC055,0.00,VWS V13.01,2013-04-18 05:47:00,
2013-04-18 01:52:00,46.4,41.2,30.00,ENE,67,0.0,1.0,82,0.00,,OVC055,0.00,VWS V13.01,2013-04-18 05:52:00,
2013-04-18 01:57:00,46.6,41.1,30.00,ENE,67,0.0,1.0,81,0.00,,OVC055,0.00,VWS V13.01,2013-04-18 05:57:00,
2013-04-18 02:00:00,46.7,41.2,30.00,ENE,67,0.0,1.0,81,0.00,,CLR,0.00,VWS V13.01,2013-04-18 06:00:00,
2013-04-18 02:02:00,46.7,41.2,29.99,ENE,67,0.0,0.0,81,0.00,,BKN060,0.00,VWS V13.01,2013-04-18 06:02:00,
2013-04-18 02:07:00,46.8,41.6,29.99,ENE,67,0.0,0.0,82,0.00,,BKN060,0.00,VWS V13.01,2013-04-18 06:07:00,
2013-04-18 02:12:00,46.9,41.7,29.98,ENE,67,0.0,0.0,82,0.00,,BKN060,0.00,VWS V13.01,2013-04-18 06:12:00,
2013-04-18 02:17:00,47.0,41.8,29.97,ENE,67,0.0,0.0,82,0.00,,BKN060,0.00,VWS V13.01,2013-04-18 06:17:00,
2013-04-18 02:22:00,47.1,41.9,29.96,ENE,67,0.0,0.0,82,0.00,,BKN060,0.00,VWS V13.01,2013-04-18 06:22:00,
2013-04-18 02:27:00,47.2,42.0,29.95,ENE,67,0.0,2.0,82,0.00,,BKN060,0.00,VWS V13.01,2013-04-18 06:27:00,
2013-04-18 02:30:00,47.2,42.0,29.95,ENE,67,0.0,2.0,82,0.00,,CLR,0.00,VWS V13.01,2013-04-18 06:30:00,
2013-04-18 02:32:00,47.3,42.1,29.95,ENE,67,0.0,1.0,82,0.00,,BKN060,0.00,VWS V13.01,2013-04-18 06:32:00,
2013-04-18 02:37:00,47.4,42.5,29.95,ENE,67,0.0,1.0,83,0.00,,BKN060,0.00,VWS V13.01,2013-04-18 06:37:00,
2013-04-18 02:42:00,47.8,43.2,29.94,WNW,298,1.0,3.0,84,0.00,,BKN060,0.00,VWS V13.01,2013-04-18 06:42:00,
2013-04-18 02:47:00,48.3,44.0,29.95,WNW,296,0.0,4.0,85,0.00,,BKN060,0.00,VWS V13.01,2013-04-18 06:47:00,
2013-04-18 02:52:00,48.6,43.7,29.95,NE,44,1.0,4.0,83,0.00,,BKN060,0.00,VWS V13.01,2013-04-18 06:52:00,
2013-04-18 02:57:00,48.5,43.0,29.95,NW,306,0.0,4.0,81,0.00,,BKN060,0.00,VWS V13.01,2013-04-18 06:57:00,
2013-04-18 03:00:00,48.4,42.8,29.96,WNW,290,0.0,4.0,81,0.00,,CLR,0.00,VWS V13.01,2013-04-18 07:00:00,
2013-04-18 03:02:00,48.2,42.7,29.95,WNW,290,0.0,1.0,81,0.00,,FEW085,0.00,VWS V13.01,2013-04-18 07:02:00,
2013-04-18 03:07:00,48.0,42.5,29.95,WNW,290,0.0,1.0,81,0.00,,FEW085,0.00,VWS V13.01,2013-04-18 07:07:00,
2013-04-18 03:12:00,47.9,42.7,29.95,WNW,290,0.0,1.0,82,0.00,,FEW085,0.00,VWS V13.01,2013-04-18 07:12:00,
2013-04-18 03:17:00,47.9,43.0,29.94,NW,322,2.0,2.0,83,0.00,,FEW085,0.00,VWS V13.01,2013-04-18 07:17:00,
2013-04-18 03:22:00,48.2,43.6,29.94,ESE,121,0.0,2.0,84,0.00,,FEW085,0.00,VWS V13.01,2013-04-18 07:22:00,
2013-04-18 03:27:00,49.9,46.8,29.93,SW,236,0.0,4.0,89,0.00,,FEW085,0.00,VWS V13.01,2013-04-18 07:27:00,
2013-04-18 03:30:00,50.7,47.9,29.93,SW,235,0.0,4.0,90,0.00,,CLR,0.00,VWS V13.01,2013-04-18 07:30:00,
2013-04-18 03:32:00,52.2,49.7,29.93,SSW,195,3.0,3.0,91,0.00,,FEW085,0.00,VWS V13.01,2013-04-18 07:32:00,
2013-04-18 03:37:00,55.1,52.5,29.92,SSE,162,0.0,3.0,91,0.00,,FEW085,0.00,VWS V13.01,2013-04-18 07:37:00,
2013-04-18 03:42:00,56.9,54.0,29.92,South,171,1.0,5.0,90,0.00,,FEW085,0.00,VWS V13.01,2013-04-18 07:42:00,
2013-04-18 03:47:00,58.2,54.4,29.92,SE,142,2.0,6.0,87,0.00,,FEW085,0.00,VWS V13.01,2013-04-18 07:47:00,
2013-04-18 03:52:00,59.1,54.3,29.91,South,184,2.0,6.0,84,0.00,,FEW085,0.00,VWS V13.01,2013-04-18 07:52:00,
2013-04-18 03:58:00,59.9,54.7,29.91,South,180,2.0,6.0,83,0.00,,FEW085,0.00,VWS V13.01,2013-04-18 07:58:00,
2013-04-18 04:00:00,60.2,54.7,29.91,South,180,0.0,6.0,82,0.00,,CLR,0.00,VWS V13.01,2013-04-18 08:00:00,
2013-04-18 04:03:00,60.3,54.5,29.91,South,180,0.0,2.0,81,0.00,,BKN095,0.00,VWS V13.01,2013-04-18 08:03:00,
2013-04-18 04:08:00,60.5,54.7,29.91,East,98,1.0,4.0,81,0.00,,BKN095,0.00,VWS V13.01,2013-04-18 08:08:00,
2013-04-18 04:13:00,60.7,54.8,29.91,SE,140,4.0,7.0,81,0.00,,BKN095,0.00,VWS V13.01,2013-04-18 08:13:00,
2013-04-18 04:30:00,61.4,55.2,29.89,SE,132,0.0,10.0,80,0.00,,CLR,0.00,VWS V13.01,2013-04-18 08:30:00,
2013-04-18 05:00:00,62.0,55.8,29.89,SSE,168,0.0,9.0,80,0.00,,CLR,0.00,VWS V13.01,2013-04-18 09:00:00,
2013-04-18 05:30:00,62.4,56.2,29.87,South,175,3.0,11.0,80,0.00,,CLR,0.00,VWS V13.01,2013-04-18 09:30:00,
2013-04-18 06:00:00,62.3,56.4,29.85,SE,136,1.0,12.0,81,0.00,,CLR,0.00,VWS V13.01,2013-04-18 10:00:00,
2013-04-18 06:30:00,62.4,56.8,29.85,SSE,159,8.0,12.0,82,0.00,,CLR,0.00,VWS V13.01,2013-04-18 10:30:00,
2013-04-18 07:00:00,62.7,56.8,29.85,South,186,4.0,15.0,81,0.00,,CLR,0.00,VWS V13.01,2013-04-18 11:00:00,
2013-04-18 07:30:00,63.1,57.5,29.86,SSW,202,5.0,7.0,82,0.00,,BKN095,0.00,VWS V13.01,2013-04-18 11:30:00,
2013-04-18 07:35:00,63.2,57.3,29.86,South,171,5.0,9.0,81,0.00,,CLR,0.00,VWS V13.01,2013-04-18 11:35:00,
2013-04-18 07:40:00,63.3,57.4,29.86,SE,142,0.0,11.0,81,0.00,,CLR,0.00,VWS V13.01,2013-04-18 11:40:00,
2013-04-18 07:45:00,63.4,57.5,29.86,South,180,5.0,11.0,81,0.00,,CLR,0.00,VWS V13.01,2013-04-18 11:45:00,
2013-04-18 07:59:00,63.8,57.9,29.87,SSE,157,1.0,1.0,81,0.00,,CLR,0.00,VWS V13.01,2013-04-18 11:59:00,
2013-04-18 08:00:00,63.9,58.0,29.87,South,180,3.0,19.0,81,0.00,,CLR,0.00,VWS V13.01,2013-04-18 12:00:00,
2013-04-18 08:04:00,64.0,58.1,29.87,SE,143,2.0,7.0,81,0.00,,CLR,0.00,VWS V13.01,2013-04-18 12:04:00,
2013-04-18 08:09:00,64.3,58.0,29.87,SSE,150,1.0,8.0,80,0.00,,CLR,0.00,VWS V13.01,2013-04-18 12:09:00,
2013-04-18 08:14:00,64.6,58.3,29.87,SSE,161,10.0,12.0,80,0.00,,CLR,0.00,VWS V13.01,2013-04-18 12:14:00,
2013-04-18 08:19:00,64.8,58.5,29.86,SSE,151,4.0,12.0,80,0.00,,CLR,0.00,VWS V13.01,2013-04-18 12:19:00,
2013-04-18 08:31:00,65.0,58.7,29.85,SE,146,3.0,3.0,80,0.00,,CLR,0.00,VWS V13.01,2013-04-18 12:31:00,
2013-04-18 08:36:00,65.2,58.5,29.86,SSE,163,1.0,13.0,79,0.00,,CLR,0.00,VWS V13.01,2013-04-18 12:36:00,
2013-04-18 08:41:00,65.3,58.6,29.85,SSW,209,4.0,13.0,79,0.00,,CLR,0.00,VWS V13.01,2013-04-18 12:41:00,
2013-04-18 08:46:00,65.4,58.7,29.86,South,184,0.0,13.0,79,0.00,,CLR,0.00,VWS V13.01,2013-04-18 12:46:00,
2013-04-18 08:51:00,65.6,58.9,29.85,SW,227,4.0,16.0,79,0.00,,CLR,0.00,VWS V13.01,2013-04-18 12:51:00,
2013-04-18 08:56:00,65.9,59.2,29.85,SE,140,3.0,16.0,79,0.00,,CLR,0.00,VWS V13.01,2013-04-18 12:56:00,
2013-04-18 09:01:00,66.1,59.0,29.85,South,182,1.0,4.0,78,0.00,,CLR,0.00,VWS V13.01,2013-04-18 13:01:00,
2013-04-18 09:06:00,66.4,59.3,29.84,SSE,162,6.0,14.0,78,0.00,,CLR,0.00,VWS V13.01,2013-04-18 13:06:00,
2013-04-18 09:11:00,66.5,59.4,29.84,East,92,10.0,14.0,78,0.00,,CLR,0.00,VWS V13.01,2013-04-18 13:11:00,
2013-04-18 09:16:00,66.8,59.7,29.84,South,178,2.0,14.0,78,0.00,,CLR,0.00,VWS V13.01,2013-04-18 13:16:00,
2013-04-18 09:21:00,66.9,59.5,29.83,East,100,2.0,14.0,77,0.00,,CLR,0.00,VWS V13.01,2013-04-18 13:21:00,
2013-04-18 09:26:00,67.1,59.7,29.83,South,188,3.0,14.0,77,0.00,,CLR,0.00,VWS V13.01,2013-04-18 13:26:00,
2013-04-18 09:31:00,67.4,60.0,29.83,SSW,195,4.0,7.0,77,0.00,,CLR,0.00,VWS V13.01,2013-04-18 13:31:00,
2013-04-18 09:36:00,67.7,59.9,29.83,SSE,162,0.0,12.0,76,0.00,,CLR,0.00,VWS V13.01,2013-04-18 13:36:00,
2013-04-18 09:41:00,68.1,60.3,29.83,South,189,7.0,14.0,76,0.00,,CLR,0.00,VWS V13.01,2013-04-18 13:41:00,
2013-04-18 09:46:00,68.6,60.7,29.83,SSE,148,2.0,14.0,76,0.00,,CLR,0.00,VWS V13.01,2013-04-18 13:46:00,
2013-04-18 09:51:00,69.3,60.7,29.82,South,170,1.0,14.0,74,0.00,,CLR,0.00,VWS V13.01,2013-04-18 13:51:00,
2013-04-18 09:56:00,69.6,60.6,29.82,SE,132,2.0,14.0,73,0.00,,CLR,0.00,VWS V13.01,2013-04-18 13:56:00,
2013-04-18 10:01:00,69.9,60.9,29.82,SW,229,4.0,10.0,73,0.00,,CLR,0.00,VWS V13.01,2013-04-18 14:01:00,
2013-04-18 10:06:00,70.6,61.5,29.81,SE,124,0.0,10.0,73,0.00,,CLR,0.00,VWS V13.01,2013-04-18 14:06:00,
2013-04-18 10:11:00,71.3,61.4,29.81,SSE,157,0.0,11.0,71,0.00,,CLR,0.00,VWS V13.01,2013-04-18 14:11:00,
2013-04-18 10:16:00,72.1,62.2,29.81,SSW,201,5.0,11.0,71,0.00,,CLR,0.00,VWS V13.01,2013-04-18 14:16:00,
2013-04-18 10:22:00,72.8,62.5,29.81,SSE,148,2.0,11.0,70,0.00,,CLR,0.00,VWS V13.01,2013-04-18 14:22:00,
2013-04-18 10:27:00,73.3,62.1,29.80,SW,220,4.0,13.0,68,0.00,,CLR,0.00,VWS V13.01,2013-04-18 14:27:00,
2013-04-18 10:32:00,73.9,62.3,29.80,SSE,167,1.0,18.0,67,0.00,,CLR,0.00,VWS V13.01,2013-04-18 14:32:00,
2013-04-18 10:37:00,74.6,62.5,29.80,South,172,0.0,18.0,66,0.00,,CLR,0.00,VWS V13.01,2013-04-18 14:37:00,
2013-04-18 10:42:00,75.0,62.5,29.80,WSW,241,3.0,18.0,65,0.00,,CLR,0.00,VWS V13.01,2013-04-18 14:42:00,
2013-04-18 10:47:00,75.1,62.5,29.80,South,176,4.0,18.0,65,0.00,,CLR,0.00,VWS V13.01,2013-04-18 14:47:00,
2013-04-18 10:52:00,75.2,62.6,29.79,SSE,163,2.0,18.0,65,0.00,,CLR,0.00,VWS V13.01,2013-04-18 14:52:00,
2013-04-18 10:57:00,75.1,62.1,29.79,SSE,162,4.0,18.0,64,0.00,,CLR,0.00,VWS V13.01,2013-04-18 14:57:00,
2013-04-18 11:02:00,75.4,62.8,29.80,South,179,2.0,10.0,65,0.00,,CLR,0.00,VWS V13.01,2013-04-18 15:02:00,
2013-04-18 11:07:00,75.6,63.0,29.79,SSW,196,2.0,11.0,65,0.00,,CLR,0.00,VWS V13.01,2013-04-18 15:07:00,
2013-04-18 11:12:00,75.9,63.3,29.79,SSW,204,2.0,15.0,65,0.00,,CLR,0.00,VWS V13.01,2013-04-18 15:12:00,
2013-04-18 11:17:00,76.2,63.1,29.79,South,177,1.0,15.0,64,0.00,,CLR,0.00,VWS V13.01,2013-04-18 15:17:00,
2013-04-18 11:22:00,76.5,63.4,29.78,SSE,159,9.0,15.0,64,0.00,,CLR,0.00,VWS V13.01,2013-04-18 15:22:00,
2013-04-18 11:27:00,76.8,63.7,29.79,South,178,4.0,17.0,64,0.00,,CLR,0.00,VWS V13.01,2013-04-18 15:27:00,
2013-04-18 11:32:00,77.1,64.0,29.79,SSW,200,6.0,7.0,64,0.00,,CLR,0.00,VWS V13.01,2013-04-18 15:32:00,
2013-04-18 11:37:00,77.6,63.6,29.79,SSW,199,5.0,15.0,62,0.00,,CLR,0.00,VWS V13.01,2013-04-18 15:37:00,
2013-04-18 11:42:00,77.7,63.7,29.79,SSE,150,2.0,15.0,62,0.00,,CLR,0.00,VWS V13.01,2013-04-18 15:42:00,
2013-04-18 11:47:00,78.0,63.9,29.78,South,189,0.0,15.0,62,0.00,,CLR,0.00,VWS V13.01,2013-04-18 15:47:00,
2013-04-18 11:52:00,78.5,64.4,29.78,SSW,205,14.0,15.0,62,0.00,,CLR,0.00,VWS V13.01,2013-04-18 15:52:00,
2013-04-18 11:57:00,78.7,64.1,29.78,SSW,206,3.0,16.0,61,0.00,,CLR,0.00,VWS V13.01,2013-04-18 15:57:00,
2013-04-18 12:02:00,78.4,63.8,29.79,SSW,204,13.0,18.0,61,0.00,,CLR,0.00,VWS V13.01,2013-04-18 16:02:00,
2013-04-18 12:07:00,78.1,64.0,29.79,SW,220,4.0,19.0,62,0.00,,CLR,0.00,VWS V13.01,2013-04-18 16:07:00,
2013-04-18 12:12:00,78.6,65.0,29.78,SSE,158,4.0,19.0,63,0.00,,CLR,0.00,VWS V13.01,2013-04-18 16:12:00,
2013-04-18 12:17:00,78.7,65.1,29.78,South,179,7.0,20.0,63,0.00,,CLR,0.00,VWS V13.01,2013-04-18 16:17:00,
2013-04-18 12:22:00,78.7,64.6,29.77,SE,134,5.0,20.0,62,0.00,,CLR,0.00,VWS V13.01,2013-04-18 16:22:00,
2013-04-18 12:27:00,78.5,64.4,29.77,SE,126,7.0,21.0,62,0.00,,CLR,0.00,VWS V13.01,2013-04-18 16:27:00,
2013-04-18 12:32:00,78.9,65.2,29.77,SW,231,6.0,17.0,63,0.00,,CLR,0.00,VWS V13.01,2013-04-18 16:32:00,
2013-04-18 12:37:00,79.3,65.2,29.76,South,171,1.0,17.0,62,0.00,,CLR,0.00,VWS V13.01,2013-04-18 16:37:00,
2013-04-18 12:42:00,79.4,65.3,29.75,SSW,207,15.0,17.0,62,0.00,,CLR,0.00,VWS V13.01,2013-04-18 16:42:00,
2013-04-18 12:48:00,79.4,64.8,29.75,SW,227,9.0,17.0,61,0.00,,CLR,0.00,VWS V13.01,2013-04-18 16:48:00,
2013-04-18 12:53:00,79.8,65.6,29.75,South,172,3.0,17.0,62,0.00,,CLR,0.00,VWS V13.01,2013-04-18 16:53:00,
2013-04-18 12:58:00,80.2,66.0,29.74,SSW,207,1.0,17.0,62,0.00,,CLR,0.00,VWS V13.01,2013-04-18 16:58:00,
2013-04-18 13:03:00,80.1,65.4,29.74,South,184,1.0,12.0,61,0.00,,OVC110,0.00,VWS V13.01,2013-04-18 17:03:00,
2013-04-18 13:08:00,80.0,65.4,29.73,South,180,4.0,13.0,61,0.00,,OVC110,0.00,VWS V13.01,2013-04-18 17:08:00,
2013-04-18 13:13:00,80.2,65.1,29.73,South,182,1.0,13.0,60,0.00,,OVC110,0.00,VWS V13.01,2013-04-18 17:13:00,
2013-04-18 13:18:00,80.3,65.6,29.73,South,181,1.0,17.0,61,0.00,,OVC110,0.00,VWS V13.01,2013-04-18 17:18:00,
2013-04-18 13:23:00,80.7,66.0,29.73,SSE,162,5.0,17.0,61,0.00,,OVC110,0.00,VWS V13.01,2013-04-18 17:23:00,
2013-04-18 13:28:00,81.0,65.3,29.73,South,175,5.0,17.0,59,0.00,,OVC110,0.00,VWS V13.01,2013-04-18 17:28:00,
2013-04-18 13:33:00,80.8,65.2,29.72,SSW,194,5.0,19.0,59,0.00,,OVC110,0.00,VWS V13.01,2013-04-18 17:33:00,
2013-04-18 13:38:00,80.7,66.0,29.72,South,180,7.0,19.0,61,0.00,,OVC110,0.00,VWS V13.01,2013-04-18 17:38:00,
2013-04-18 13:43:00,80.8,65.2,29.72,SSW,204,12.0,19.0,59,0.00,,OVC110,0.00,VWS V13.01,2013-04-18 17:43:00,
2013-04-18 13:48:00,80.7,65.1,29.72,SSW,202,10.0,19.0,59,0.00,,OVC110,0.00,VWS V13.01,2013-04-18 17:48:00,
2013-04-18 13:53:00,80.9,65.2,29.72,SSE,162,2.0,19.0,59,0.00,,OVC110,0.00,VWS V13.01,2013-04-18 17:53:00,
2013-04-18 13:58:00,81.0,65.3,29.72,South,171,2.0,19.0,59,0.00,,OVC110,0.00,VWS V13.01,2013-04-18 17:58:00,
2013-04-18 14:03:00,81.3,65.1,29.72,SE,132,6.0,18.0,58,0.00,,CLR,0.00,VWS V13.01,2013-04-18 18:03:00,
2013-04-18 14:08:00,81.8,66.1,29.72,SSE,162,3.0,18.0,59,0.00,,CLR,0.00,VWS V13.01,2013-04-18 18:08:00,
2013-04-18 14:13:00,81.9,65.7,29.72,SE,138,5.0,18.0,58,0.00,,CLR,0.00,VWS V13.01,2013-04-18 18:13:00,
2013-04-18 14:18:00,82.1,65.9,29.72,SSW,198,3.0,18.0,58,0.00,,CLR,0.00,VWS V13.01,2013-04-18 18:18:00,
2013-04-18 14:23:00,82.0,65.3,29.71,SSW,204,2.0,18.0,57,0.00,,CLR,0.00,VWS V13.01,2013-04-18 18:23:00,
2013-04-18 14:28:00,82.2,65.5,29.72,SSE,152,3.0,20.0,57,0.00,,CLR,0.00,VWS V13.01,2013-04-18 18:28:00,
2013-04-18 14:33:00,82.4,65.7,29.72,SSE,154,3.0,14.0,57,0.00,,CLR,0.00,VWS V13.01,2013-04-18 18:33:00,
2013-04-18 14:38:00,83.0,65.7,29.71,SSW,194,9.0,19.0,56,0.00,,CLR,0.00,VWS V13.01,2013-04-18 18:38:00,
2013-04-18 14:43:00,83.2,65.9,29.70,SSW,209,10.0,21.0,56,0.00,,CLR,0.00,VWS V13.01,2013-04-18 18:43:00,
2013-04-18 14:48:00,83.2,65.9,29.71,SSW,209,13.0,21.0,56,0.00,,CLR,0.00,VWS V13.01,2013-04-18 18:48:00,
2013-04-18 14:53:00,82.7,65.4,29.70,SSW,198,7.0,21.0,56,0.00,,CLR,0.00,VWS V13.01,2013-04-18 18:53:00,
2013-04-18 14:58:00,82.4,65.1,29.70,South,183,4.0,21.0,56,0.00,,CLR,0.00,VWS V13.01,2013-04-18 18:58:00,
2013-04-18 15:03:00,82.4,65.1,29.69,SSW,202,14.0,18.0,56,0.00,,SCT110,0.00,VWS V13.01,2013-04-18 19:03:00,
2013-04-18 15:08:00,82.2,64.4,29.68,SSW,197,3.0,18.0,55,0.00,,SCT110,0.00,VWS V13.01,2013-04-18 19:08:00,
2013-04-18 15:13:00,82.0,65.3,29.68,SW,235,2.0,18.0,57,0.00,,SCT110,0.00,VWS V13.01,2013-04-18 19:13:00,
2013-04-18 15:18:00,82.0,65.8,29.68,South,181,3.0,18.0,58,0.00,,SCT110,0.00,VWS V13.01,2013-04-18 19:18:00,
2013-04-18 15:23:00,82.6,65.3,29.68,SSW,205,5.0,18.0,56,0.00,,SCT110,0.00,VWS V13.01,2013-04-18 19:23:00,
2013-04-18 15:28:00,83.0,66.2,29.67,SSW,197,0.0,18.0,57,0.00,,SCT110,0.00,VWS V13.01,2013-04-18 19:28:00,
2013-04-18 15:33:00,83.2,65.9,29.67,WSW,257,5.0,10.0,56,0.00,,SCT110,0.00,VWS V13.01,2013-04-18 19:33:00,
2013-04-18 15:38:00,83.2,65.9,29.66,South,178,10.0,13.0,56,0.00,,SCT110,0.00,VWS V13.01,2013-04-18 19:38:00,
2013-04-18 15:43:00,83.5,65.7,29.66,SSW,204,5.0,16.0,55,0.00,,SCT110,0.00,VWS V13.01,2013-04-18 19:43:00,
2013-04-18 15:48:00,83.5,65.1,29.66,SSW,202,6.0,20.0,54,0.00,,SCT110,0.00,VWS V13.01,2013-04-18 19:48:00,
2013-04-18 15:53:00,83.7,64.8,29.66,SSW,192,0.0,20.0,53,0.00,,SCT110,0.00,VWS V13.01,2013-04-18 19:53:00,
2013-04-18 15:58:00,83.4,64.5,29.65,South,182,4.0,20.0,53,0.00,,SCT110,0.00,VWS V13.01,2013-04-18 19:58:00,
2013-04-18 16:03:00,83.4,65.0,29.65,South,186,1.0,7.0,54,0.00,,FEW065,0.00,VWS V13.01,2013-04-18 20:03:00,
2013-04-18 16:08:00,83.6,65.2,29.65,ESE,106,2.0,19.0,54,0.00,,FEW065,0.00,VWS V13.01,2013-04-18 20:08:00,
2013-04-18 16:13:00,83.4,64.5,29.64,South,178,2.0,19.0,53,0.00,,FEW065,0.00,VWS V13.01,2013-04-18 20:13:00,
2013-04-18 16:18:00,83.5,64.6,29.64,SSW,194,3.0,19.0,53,0.00,,FEW065,0.00,VWS V13.01,2013-04-18 20:18:00,
2013-04-18 16:23:00,83.7,64.8,29.64,SSW,205,2.0,21.0,53,0.00,,FEW065,0.00,VWS V13.01,2013-04-18 20:23:00,
2013-04-18 16:28:00,84.0,64.5,29.64,SSW,192,4.0,21.0,52,0.00,,FEW065,0.00,VWS V13.01,2013-04-18 20:28:00,
2013-04-18 16:33:00,83.9,64.4,29.64,South,182,9.0,20.0,52,0.00,,FEW065,0.00,VWS V13.01,2013-04-18 20:33:00,
2013-04-18 16:38:00,84.1,64.6,29.64,SSW,207,3.0,20.0,52,0.00,,FEW065,0.00,VWS V13.01,2013-04-18 20:38:00,
2013-04-18 16:43:00,84.1,64.6,29.64,SE,146,6.0,20.0,52,0.00,,FEW065,0.00,VWS V13.01,2013-04-18 20:43:00,
2013-04-18 16:48:00,83.6,64.1,29.64,South,182,11.0,20.0,52,0.00,,FEW065,0.00,VWS V13.01,2013-04-18 20:48:00,
2013-04-18 16:53:00,83.2,64.3,29.64,SW,222,8.0,20.0,53,0.00,,FEW065,0.00,VWS V13.01,2013-04-18 20:53:00,
2013-04-18 16:58:00,83.1,64.2,29.64,SW,221,1.0,20.0,53,0.00,,FEW065,0.00,VWS V13.01,2013-04-18 20:58:00,
2013-04-18 17:03:00,83.4,64.0,29.63,SSW,200,3.0,18.0,52,0.00,,BKN070,0.00,VWS V13.01,2013-04-18 21:03:00,
2013-04-18 17:08:00,83.6,64.7,29.63,SSW,196,2.0,18.0,53,0.00,,BKN070,0.00,VWS V13.01,2013-04-18 21:08:00,
2013-04-18 17:13:00,84.0,63.9,29.63,SSW,210,2.0,18.0,51,0.00,,BKN070,0.00,VWS V13.01,2013-04-18 21:13:00,
2013-04-18 17:18:00,84.3,64.8,29.63,South,171,6.0,19.0,52,0.00,,BKN070,0.00,VWS V13.01,2013-04-18 21:18:00,
2013-04-18 17:23:00,84.5,65.0,29.63,South,178,2.0,19.0,52,0.00,,BKN070,0.00,VWS V13.01,2013-04-18 21:23:00,
2013-04-18 17:28:00,84.3,64.2,29.63,SSE,158,5.0,19.0,51,0.00,,BKN070,0.00,VWS V13.01,2013-04-18 21:28:00,
2013-04-18 17:33:00,84.0,64.5,29.62,SSE,168,1.0,9.0,52,0.00,,BKN070,0.00,VWS V13.01,2013-04-18 21:33:00,
2013-04-18 17:39:00,83.9,64.4,29.62,SSW,209,2.0,13.0,52,0.00,,BKN070,0.00,VWS V13.01,2013-04-18 21:39:00,
2013-04-18 17:44:00,83.8,63.8,29.61,SSW,206,0.0,14.0,51,0.00,,BKN070,0.00,VWS V13.01,2013-04-18 21:44:00,
2013-04-18 17:49:00,83.6,63.6,29.61,SW,221,3.0,14.0,51,0.00,,BKN070,0.00,VWS V13.01,2013-04-18 21:49:00,
2013-04-18 17:54:00,83.4,62.8,29.62,SSW,196,11.0,17.0,50,0.00,,BKN070,0.00,VWS V13.01,2013-04-18 21:54:00,
2013-04-18 17:59:00,83.4,63.4,29.62,SSE,160,3.0,17.0,51,0.00,,BKN070,0.00,VWS V13.01,2013-04-18 21:59:00,
2013-04-18 18:04:00,83.3,62.7,29.61,SSW,203,5.0,14.0,50,0.00,,FEW075,0.00,VWS V13.01,2013-04-18 22:04:00,
2013-04-18 18:09:00,83.3,62.7,29.61,South,179,2.0,17.0,50,0.00,,FEW075,0.00,VWS V13.01,2013-04-18 22:09:00,
2013-04-18 18:14:00,83.5,62.9,29.61,SW,219,6.0,17.0,50,0.00,,FEW075,0.00,VWS V13.01,2013-04-18 22:14:00,
2013-04-18 18:19:00,83.7,62.5,29.61,SSW,193,2.0,17.0,49,0.00,,FEW075,0.00,VWS V13.01,2013-04-18 22:19:00,
2013-04-18 18:24:00,83.6,63.0,29.60,SSW,198,4.0,17.0,50,0.00,,FEW075,0.00,VWS V13.01,2013-04-18 22:24:00,
2013-04-18 18:29:00,83.3,63.3,29.61,SW,215,5.0,17.0,51,0.00,,FEW075,0.00,VWS V13.01,2013-04-18 22:29:00,
2013-04-18 18:34:00,83.0,63.0,29.61,South,183,4.0,13.0,51,0.00,,FEW075,0.00,VWS V13.01,2013-04-18 22:34:00,
2013-04-18 18:39:00,82.8,62.3,29.61,SSW,202,6.0,16.0,50,0.00,,FEW075,0.00,VWS V13.01,2013-04-18 22:39:00,
2013-04-18 18:44:00,82.7,62.2,29.61,South,186,4.0,16.0,50,0.00,,FEW075,0.00,VWS V13.01,2013-04-18 22:44:00,
2013-04-18 18:49:00,82.5,62.6,29.61,South,185,3.0,16.0,51,0.00,,FEW075,0.00,VWS V13.01,2013-04-18 22:49:00,
2013-04-18 18:54:00,82.3,62.4,29.61,SW,225,2.0,16.0,51,0.00,,FEW075,0.00,VWS V13.01,2013-04-18 22:54:00,
2013-04-18 18:59:00,82.1,62.2,29.61,SSE,157,3.0,16.0,51,0.00,,FEW075,0.00,VWS V13.01,2013-04-18 22:59:00,
2013-04-18 19:04:00,82.1,62.2,29.61,SSW,200,5.0,7.0,51,0.00,,FEW085,0.00,VWS V13.01,2013-04-18 23:04:00,
2013-04-18 19:09:00,82.2,62.3,29.60,SSE,160,7.0,15.0,51,0.00,,FEW085,0.00,VWS V13.01,2013-04-18 23:09:00,
2013-04-18 19:14:00,82.3,62.4,29.60,SSW,207,3.0,15.0,51,0.00,,FEW085,0.00,VWS V13.01,2013-04-18 23:14:00,
2013-04-18 19:19:00,82.1,62.2,29.60,SSW,192,3.0,15.0,51,0.00,,FEW085,0.00,VWS V13.01,2013-04-18 23:19:00,
2013-04-18 19:24:00,81.9,62.0,29.60,SSW,203,4.0,15.0,51,0.00,,FEW085,0.00,VWS V13.01,2013-04-18 23:24:00,
2013-04-18 19:29:00,81.7,61.8,29.60,SSW,203,1.0,15.0,51,0.00,,FEW085,0.00,VWS V13.01,2013-04-18 23:29:00,
2013-04-18 19:34:00,81.7,61.8,29.59,SSE,150,4.0,12.0,51,0.00,,FEW085,0.00,VWS V13.01,2013-04-18 23:34:00,
2013-04-18 19:39:00,81.7,61.3,29.59,SSE,167,3.0,12.0,50,0.00,,FEW085,0.00,VWS V13.01,2013-04-18 23:39:00,
2013-04-18 19:44:00,81.5,61.1,29.59,SW,215,1.0,12.0,50,0.00,,FEW085,0.00,VWS V13.01,2013-04-18 23:44:00,
2013-04-18 19:49:00,81.3,61.5,29.59,SSW,192,0.0,12.0,51,0.00,,FEW085,0.00,VWS V13.01,2013-04-18 23:49:00,
2013-04-18 19:54:00,81.1,61.3,29.59,SSW,195,5.0,12.0,51,0.00,,FEW085,0.00,VWS V13.01,2013-04-18 23:54:00,
2013-04-18 19:59:00,81.0,61.2,29.59,SSW,202,1.0,12.0,51,0.00,,FEW085,0.00,VWS V13.01,2013-04-18 23:59:00,
2013-04-18 20:04:00,81.0,61.2,29.59,SSW,209,6.0,10.0,51,0.00,,CLR,0.00,VWS V13.01,2013-04-19 00:04:00,
2013-04-18 20:09:00,80.9,61.1,29.59,SSE,163,1.0,11.0,51,0.00,,CLR,0.00,VWS V13.01,2013-04-19 00:09:00,
2013-04-18 20:14:00,80.7,60.9,29.59,SSE,163,1.0,12.0,51,0.00,,CLR,0.00,VWS V13.01,2013-04-19 00:14:00,
2013-04-18 20:19:00,80.6,60.8,29.59,SSW,206,4.0,12.0,51,0.00,,CLR,0.00,VWS V13.01,2013-04-19 00:19:00,
2013-04-18 20:24:00,80.5,60.7,29.59,SSW,197,1.0,12.0,51,0.00,,CLR,0.00,VWS V13.01,2013-04-19 00:24:00,
2013-04-18 20:29:00,80.2,60.5,29.59,South,188,3.0,12.0,51,0.00,,CLR,0.00,VWS V13.01,2013-04-19 00:29:00,
2013-04-18 20:34:00,80.1,60.4,29.59,SW,219,1.0,10.0,51,0.00,,CLR,0.00,VWS V13.01,2013-04-19 00:34:00,
2013-04-18 20:39:00,80.1,60.9,29.58,SW,222,4.0,10.0,52,0.00,,CLR,0.00,VWS V13.01,2013-04-19 00:39:00,
2013-04-18 20:44:00,79.7,60.5,29.58,SSE,168,0.0,10.0,52,0.00,,CLR,0.00,VWS V13.01,2013-04-19 00:44:00,
2013-04-18 20:49:00,79.5,60.3,29.59,South,186,4.0,10.0,52,0.00,,CLR,0.00,VWS V13.01,2013-04-19 00:49:00,
2013-04-18 20:54:00,79.5,60.3,29.59,South,187,2.0,10.0,52,0.00,,CLR,0.00,VWS V13.01,2013-04-19 00:54:00,
2013-04-18 20:59:00,79.5,60.3,29.59,South,169,3.0,10.0,52,0.00,,CLR,0.00,VWS V13.01,2013-04-19 00:59:00,
2013-04-18 21:04:00,79.4,60.3,29.59,SSW,193,1.0,7.0,52,0.00,,CLR,0.00,VWS V13.01,2013-04-19 01:04:00,
2013-04-18 21:09:00,79.5,60.3,29.59,SSE,165,0.0,7.0,52,0.00,,CLR,0.00,VWS V13.01,2013-04-19 01:09:00,
2013-04-18 21:14:00,79.4,60.3,29.60,SW,221,1.0,7.0,52,0.00,,CLR,0.00,VWS V13.01,2013-04-19 01:14:00,
2013-04-18 21:20:00,79.3,60.7,29.60,SW,221,0.0,7.0,53,0.00,,CLR,0.00,VWS V13.01,2013-04-19 01:20:00,
2013-04-18 21:25:00,78.3,59.8,29.60,West,263,2.0,7.0,53,0.00,,CLR,0.00,VWS V13.01,2013-04-19 01:25:00,
2013-04-18 21:30:00,75.7,59.4,29.61,WSW,257,0.0,7.0,57,0.00,,CLR,0.00,VWS V13.01,2013-04-19 01:30:00,
2013-04-18 21:35:00,73.5,58.8,29.61,WSW,245,2.0,6.0,60,0.00,,CLR,0.00,VWS V13.01,2013-04-19 01:35:00,
2013-04-18 21:40:00,71.9,58.6,29.62,WSW,250,1.0,6.0,63,0.00,,CLR,0.00,VWS V13.01,2013-04-19 01:40:00,
2013-04-18 21:45:00,70.4,58.5,29.62,West,280,0.0,6.0,66,0.00,,CLR,0.00,VWS V13.01,2013-04-19 01:45:00,
2013-04-18 21:50:00,69.4,58.8,29.61,West,280,0.0,6.0,69,0.00,,CLR,0.00,VWS V13.01,2013-04-19 01:50:00,
2013-04-18 21:55:00,68.8,58.6,29.61,West,279,0.0,6.0,70,0.00,,CLR,0.00,VWS V13.01,2013-04-19 01:55:00,
2013-04-18 22:00:00,68.5,58.7,29.62,West,279,0.0,6.0,71,0.00,,CLR,0.00,VWS V13.01,2013-04-19 02:00:00,
2013-04-18 22:05:00,68.4,59.0,29.63,West,279,3.0,3.0,72,0.00,,BKN100,0.00,VWS V13.01,2013-04-19 02:05:00,
2013-04-18 22:10:00,68.0,59.4,29.63,WNW,292,0.0,6.0,74,0.00,,BKN100,0.00,VWS V13.01,2013-04-19 02:10:00,
2013-04-18 22:15:00,67.4,59.6,29.64,NNE,20,1.0,6.0,76,0.00,,BKN100,0.00,VWS V13.01,2013-04-19 02:15:00,
2013-04-18 22:20:00,66.9,59.5,29.64,SSW,200,3.0,6.0,77,0.00,,BKN100,0.00,VWS V13.01,2013-04-19 02:20:00,
2013-04-18 22:25:00,66.5,59.4,29.65,SW,223,3.0,6.0,78,0.00,,BKN100,0.00,VWS V13.01,2013-04-19 02:25:00,
2013-04-18 22:30:00,66.2,59.5,29.65,SW,223,0.0,1.0,79,0.00,,BKN100,0.00,VWS V13.01,2013-04-19 02:30:00,
2013-04-18 22:35:00,65.9,59.6,29.65,WNW,286,3.0,4.0,80,0.00,,BKN100,0.00,VWS V13.01,2013-04-19 02:35:00,
2013-04-18 22:40:00,65.7,59.7,29.65,WSW,254,0.0,6.0,81,0.00,,BKN100,0.00,VWS V13.01,2013-04-19 02:40:00,
2013-04-18 22:45:00,65.4,59.8,29.66,WSW,250,2.0,10.0,82,0.00,,BKN100,0.00,VWS V13.01,2013-04-19 02:45:00,
2013-04-18 22:50:00,65.0,59.4,29.66,WSW,244,2.0,10.0,82,0.00,,BKN100,0.00,VWS V13.01,2013-04-19 02:50:00,
2013-04-18 22:55:00,64.7,59.1,29.66,WSW,246,0.0,10.0,82,0.00,,BKN100,0.00,VWS V13.01,2013-04-19 02:55:00,
2013-04-18 23:00:00,64.5,58.9,29.66,West,265,5.0,5.0,82,0.00,,BKN100,0.00,VWS V13.01,2013-04-19 03:00:00,
2013-04-18 23:05:00,64.5,58.9,29.66,SSW,207,0.0,5.0,82,0.00,,OVC110,0.00,VWS V13.01,2013-04-19 03:05:00,
2013-04-18 23:10:00,64.5,58.9,29.66,SSW,207,1.0,5.0,82,0.00,,OVC110,0.00,VWS V13.01,2013-04-19 03:10:00,
2013-04-18 23:15:00,64.5,58.9,29.66,SSW,207,0.0,5.0,82,0.00,,OVC110,0.00,VWS V13.01,2013-04-19 03:15:00,
2013-04-18 23:20:00,64.6,59.0,29.66,SSW,207,0.0,5.0,82,0.00,,OVC110,0.00,VWS V13.01,2013-04-19 03:20:00,
2013-04-18 23:25:00,64.7,59.1,29.66,SSW,207,0.0,5.0,82,0.00,,OVC110,0.00,VWS V13.01,2013-04-19 03:25:00,
2013-04-18 23:30:00,64.8,59.2,29.66,SSW,207,0.0,0.0,82,0.00,,OVC110,0.00,VWS V13.01,2013-04-19 03:30:00,
2013-04-18 23:35:00,64.8,59.2,29.66,SSW,207,0.0,1.0,82,0.00,,OVC110,0.00,VWS V13.01,2013-04-19 03:35:00,
2013-04-18 23:40:00,64.7,59.1,29.65,SSW,207,0.0,1.0,82,0.00,,OVC110,0.00,VWS V13.01,2013-04-19 03:40:00,
2013-04-18 23:45:00,64.7,59.1,29.65,SSW,207,0.0,1.0,82,0.00,,OVC110,0.00,VWS V13.01,2013-04-19 03:45:00,
2013-04-18 23:50:00,64.7,59.1,29.64,SSW,207,0.0,2.0,82,0.00,,OVC110,0.00,VWS V13.01,2013-04-19 03:50:00,
2013-04-18 23:55:00,64.7,59.1,29.64,SSW,207,0.0,2.0,82,0.00,,OVC110,0.00,VWS V13.01,2013-04-19 03:55:00,